Kuiper-00012

operational
NORAD ID: 63728 Int'l Des: 2025-088 Owner: KUIP Country: US Constellation: kuiper
LEOCIRCULAR

Über Kuiper-00012

Beschreibung wird geladen...

Live-Position

3D-Globus wird geladen...

Nächste Überflüge

Höhenverlauf

Altitude vs Time

uPlot chart will show altitude changes over time

Zweizeiliger Elementsatz

1 63728U 25088E 26062.09805021 -.00010131 00000-0 -12738-2 0 9991
2 63728 51.9001 104.7309 0001405 6.2893 353.8087 14.80841110 46941
Epoch: 3. März 2026 • Age: 38 hours

Aktueller Status

Höhe 644.9 km
Geschwindigkeit 7.54 km/s
Subsatellitenpunkt -52.05°S, 2.48°E
Startdatum 28. Apr. 2025
Alter 0.8 years
Typ internet

Technische Details

Klassifizierung Payload
Masse 490.00 kg
Trockenmasse 490.00 kg
Gesamtmasse 490.00 kg
Länge 1.80 m
Durchmesser 0.70 m
Spannweite 5.00 m
Form Box + 2 pan
Hersteller KUIP
Bus-Typ Kuiper
Phasenstatus In Orbit
Besitzer/Staat KUIP/US

Große Konstellationen

Loading constellations...